Location: Medlow Airstrip Trail, Medlow Bath NSW 2780, Australia
(33.6682°S, 150.3233°E)
Time: 07:49:33
(UTC+11:00)

Vanguard 3 - All Passes

Search period start: 24 October 2019 00:00
Search period end: 03 November 2019 00:00
Orbit: 508 x 3262 km, 33.3° (Epoch: 23 October)

Date Brightness Start Highest point End Pass type
(mag) Time Alt. Az. Time Alt. Az. Time Alt. Az.
24 Oct - 07:24:24 10° N 07:32:25 20° NE 07:42:53 10° E daylight
24 Oct - 09:31:39 10° NW 09:45:04 56° NNE 10:04:02 10° ESE daylight
24 Oct - 11:44:03 10° WNW 12:01:22 85° NNE 12:21:20 10° E daylight
24 Oct - 13:59:29 10° W 14:19:31 87° N 14:36:48 10° ENE daylight
24 Oct - 16:16:48 10° WSW 16:36:04 61° NNW 16:49:27 10° NE daylight
24 Oct - 18:37:09 10° W 18:48:56 23° NW 18:57:35 10° N daylight
25 Oct - 08:18:46 10° NNW 08:29:42 38° NE 08:45:44 10° E daylight
25 Oct - 10:29:10 10° WNW 10:44:09 75° NNE 11:04:19 10° ESE daylight
25 Oct - 12:43:08 10° W 13:01:45 89° N 13:20:58 10° E daylight
25 Oct - 14:59:22 10° WSW 15:19:32 75° NNW 15:35:19 10° ENE daylight
25 Oct - 17:17:38 10° WSW 17:34:20 40° NW 17:46:01 10° NNE daylight
26 Oct - 07:07:26 10° N 07:15:18 22° NE 07:26:05 10° E daylight
26 Oct - 09:15:13 10° NW 09:27:48 60° NNE 09:46:41 10° ESE daylight
26 Oct - 11:27:34 10° WNW 11:44:03 87° N 12:04:21 10° E daylight
26 Oct - 13:42:36 10° W 14:02:10 85° NNW 14:20:12 10° ENE daylight
26 Oct - 15:59:31 10° WSW 16:18:44 57° NNW 16:32:57 10° NE daylight
26 Oct - 18:20:17 10° W 18:31:45 21° NW 18:40:34 10° N daylight
27 Oct - 08:02:18 10° NNW 08:12:32 41° NE 08:28:23 10° ESE daylight
27 Oct - 10:12:49 10° WNW 10:26:54 78° NNE 10:47:03 10° E daylight
27 Oct - 12:26:32 10° W 12:44:25 89° N 13:04:09 10° E daylight
27 Oct - 14:42:17 10° WSW 15:02:08 72° NNW 15:18:45 10° ENE daylight
27 Oct - 17:00:26 10° W 17:17:00 37° NW 17:29:18 10° NNE daylight
28 Oct - 06:50:44 10° N 06:58:17 24° NE 07:09:07 10° E daylight
28 Oct - 08:58:56 10° NW 09:10:40 63° NNE 09:29:15 10° ESE daylight
28 Oct - 11:11:11 10° W 11:26:48 88° N 11:47:15 10° E daylight
28 Oct - 13:25:48 10° W 13:44:46 82° NNW 14:03:29 10° ENE daylight
28 Oct - 15:42:20 10° WSW 16:01:18 53° NW 16:16:16 10° NE daylight
28 Oct - 18:03:40 10° W 18:14:30 19° NW 18:23:16 10° NNW daylight
29 Oct - 07:45:59 10° NNW 07:55:31 45° NE 08:10:59 10° ESE daylight
29 Oct - 09:56:37 10° WNW 10:09:47 81° NNE 10:29:43 10° E daylight
29 Oct - 12:10:01 10° W 12:27:07 88° N 12:47:13 10° E daylight
29 Oct - 14:25:19 10° WSW 14:44:39 68° NNW 15:02:01 10° NE daylight
29 Oct - 16:43:22 10° W 16:59:35 33° NW 17:12:21 10° NNE daylight
30 Oct - 06:34:13 10° N 06:41:23 26° NE 06:52:04 10° E daylight
30 Oct - 08:42:48 10° NW 08:53:41 67° NNE 09:11:45 10° ESE daylight
30 Oct - 10:54:55 10° W 11:09:38 89° N 11:30:05 10° E daylight
30 Oct - 13:09:07 10° W 13:27:21 80° NNW 13:46:37 10° ENE daylight
30 Oct - 15:25:17 10° WSW 15:43:47 49° NW 15:59:24 10° NNE daylight
30 Oct - 17:47:24 10° W 17:57:11 17° NW 18:05:33 10° NNW daylight
31 Oct - 05:26:16 10° NE 05:27:59 11° NE 05:29:51 10° ENE visible
31 Oct - 07:29:48 10° NW 07:38:38 48° NE 07:53:33 10° ESE daylight
31 Oct - 09:40:30 10° WNW 09:52:47 83° NNE 10:12:18 10° E daylight
31 Oct - 11:53:37 10° W 12:09:49 87° N 12:30:10 10° ENE daylight
31 Oct - 14:08:28 10° WSW 14:27:08 64° NNW 14:45:07 10° NE daylight
31 Oct - 16:26:30 10° W 16:42:06 30° NW 16:55:10 10° N daylight
01 Nov - 06:17:52 10° N 06:24:36 28° NE 06:34:59 10° E daylight
01 Nov - 08:26:46 10° WNW 08:36:51 71° NNE 08:54:14 10° ESE daylight
01 Nov - 10:38:45 10° W 10:52:33 89° N 11:12:47 10° E daylight
01 Nov - 12:52:31 10° W 13:09:55 76° NNW 13:29:36 10° ENE daylight
01 Nov - 15:08:24 10° W 15:26:13 45° NW 15:42:19 10° NNE daylight
01 Nov - 17:31:41 10° WNW 17:39:52 14° NW 17:47:14 10° NNW daylight
02 Nov - 05:08:37 10° NNE 05:11:18 12° NE 05:14:24 10° ENE visible
02 Nov - 07:13:45 10° NW 07:21:54 51° NNE 07:36:07 10° ESE daylight
02 Nov - 09:24:30 10° WNW 09:35:55 86° N 09:54:51 10° E daylight
02 Nov - 11:37:18 10° W 11:52:35 85° N 12:12:58 10° ENE daylight
02 Nov - 13:51:44 10° WSW 14:09:36 59° NNW 14:28:00 10° NE daylight
02 Nov - 16:09:52 10° W 16:24:36 27° NW 16:37:42 10° N daylight
